Wind_Speed
2 3 3 3 4 4 5 5 6 7 7 8 9 9 10 9 9 8 8 7 7 8 8 8 8 8 8 8 9 9 9 9 10 10 11 11 10 10 10 9 8 7 6
3 3 3 4 4 4 5 6 7 7 8 8 8 9 9 9 9 8 7 7 7 6 6 6 7 7 7 7 7 7 7 8 8 8 9 9 9 9 8 8 7 6 5
4 5 5 5 6 6 6 7 8 8 9 9 9 9 9 9 8 8 7 7 6 6 6 6 6 6 6 6 6 6 6 6 6 6 7 7 7 7 7 6 6 5 4
6 6 7 7 7 8 8 9 9 9 10 10 10 10 10 9 9 8 8 7 6 6 6 5 5 5 5 5 5 5 5 5 5 5 5 5 5 5 5 5 4 4 3
8 8 8 9 10 10 10 11 11 11 11 11 11 11 11 10 10 9 9 8 7 7 6 5 5 4 4 4 4 4 4 4 4 4 4 4 4 3 3 3 4 4 3
10 10 10 10 11 12 12 13 13 13 13 13 13 13 13 12 11 11 10 9 8 8 7 6 5 5 4 4 3 3 3 3 3 3 3 3 3 3 3 3 3 3 3
12 12 12 12 13 13 14 15 15 15 16 16 16 16 15 14 14 13 12 11 10 9 8 7 6 6 5 5 4 4 3 3 3 2 2 2 2 2 2 2 2 3 3
14 15 15 15 15 15 16 17 17 17 18 18 18 19 18 17 16 15 14 13 12 11 10 9 8 7 6 6 5 5 4 3 3 3 2 2 1 1 1 1 1 2 3
18 18 19 18 18 18 19 19 19 19 19 20 20 20 20 20 19 18 17 16 15 14 12 11 10 9 8 8 7 6 5 4 4 3 2 2 1 0 0 1 1 2 2
21 21 22 23 23 23 23 22 22 22 21 22 22 22 21 21 21 21 20 19 17 16 15 14 13 12 11 10 9 7 6 5 5 4 3 3 2 1 1 1 1 2 3
25 25 26 27 27 26 27 27 26 26 25 25 25 24 24 23 22 22 22 22 21 19 18 16 16 14 13 12 11 10 8 7 6 5 4 4 3 2 2 2 2 2 3
28 29 30 30 31 31 31 31 31 30 29 28 28 27 26 26 24 23 23 23 23 22 21 20 18 17 16 15 13 12 10 9 8 7 6 5 4 4 3 2 3 3 4
31 31 32 33 34 34 34 35 34 34 33 31 31 30 29 28 28 27 25 25 25 24 23 22 21 20 19 17 16 14 13 11 10 9 8 7 6 5 4 4 4 4 4
32 32 33 34 35 35 36 37 38 38 38 36 35 34 33 32 31 30 29 28 27 26 26 24 23 22 21 20 19 18 16 14 13 12 11 9 8 7 6 5 5 5 5
30 31 32 33 34 35 36 37 38 39 40 40 40 39 38 37 35 33 32 31 31 28 27 27 25 25 24 22 21 21 19 17 16 14 13 12 11 10 8 7 6 6 6
29 29 29 30 30 32 33 34 36 37 38 40 41 41 41 41 39 37 35 34 33 32 29 29 28 27 26 24 23 23 22 20 19 17 15 14 13 12 11 9 8 8 8
26 27 27 27 27 28 29 31 32 34 36 38 39 40 41 42 41 40 37 35 34 33 31 30 31 29 29 27 26 25 24 22 21 20 18 17 16 14 13 12 11 10 10
24 24 24 24 25 26 26 27 29 30 32 34 36 38 39 41 42 41 41 38 36 35 34 33 31 31 31 29 28 27 26 26 24 22 21 20 18 17 16 15 14 12 12
22 22 23 24 25 25 25 26 26 28 29 31 33 35 37 38 40 41 41 41 40 38 37 36 35 34 33 31 30 29 28 27 27 25 24 23 21 20 19 17 16 15 14
21 22 22 23 23 24 24 25 26 26 28 29 31 32 34 36 38 39 40 41 42 41 39 38 37 36 35 32 31 31 30 29 28 27 26 25 24 23 21 20 18 17 16
21 21 21 22 22 21 21 22 23 23 24 26 28 30 32 33 36 37 38 39 41 42 41 40 39 38 37 35 33 30 31 31 29 28 27 27 27 25 24 22 21 20 19
20 21 21 20 20 19 19 19 19 20 21 22 24 27 29 30 32 34 36 37 39 41 42 42 41 39 39 37 35 33 31 32 31 30 29 28 28 27 26 25 24 23 21
21 21 21 20 19 18 18 18 18 18 19 20 21 23 25 27 30 32 34 35 37 39 41 42 42 40 40 39 37 36 33 32 33 32 32 31 30 29 28 27 26 25 24
21 21 21 21 19 18 18 17 18 18 18 18 19 20 22 24 26 28 31 33 35 37 39 40 41 41 41 41 40 39 36 34 34 33 33 33 32 31 30 29 27 27 26
22 22 21 20 19 19 18 18 18 18 17 17 16 17 18 20 23 25 28 30 32 33 36 38 39 41 42 42 42 41 39 38 36 34 34 34 33 32 32 31 30 29 28
22 22 21 20 20 20 20 19 19 18 17 16 16 15 16 18 20 21 24 26 28 31 33 35 37 39 41 42 42 42 42 39 38 36 35 34 34 34 34 34 33 31 30
Wind_Direction
157 158 157 153 157 168 173 179 183 186 187 188 190 193 195 198 202 207 213 220 224 228 235 245 254 260 263 264 265 267 272 277 283 288 290 292 293 292 294 298 304 309 315
217 209 201 195 191 193 198 201 201 201 202 202 200 199 200 201 203 207 212 217 222 228 234 244 253 257 260 262 263 265 270 278 284 287 290 291 292 291 290 294 296 297 299
253 241 230 221 217 215 214 215 215 214 212 212 211 209 208 208 209 211 214 217 220 225 230 239 248 255 256 259 260 259 264 273 282 289 293 296 296 290 285 287 285 289 290
271 261 249 238 234 230 226 225 225 224 221 219 218 217 217 217 216 216 217 217 219 223 226 232 240 247 251 253 254 254 259 267 279 291 298 303 302 294 285 282 275 282 277
284 274 266 253 247 244 240 236 233 232 231 229 227 226 223 223 222 222 222 223 223 224 226 230 235 240 245 248 246 250 260 271 281 289 296 302 303 295 290 284 268 268 269
287 282 272 262 257 253 249 245 244 239 237 236 234 232 230 228 227 227 226 225 226 226 228 232 235 237 241 245 247 250 259 270 276 285 298 302 303 301 296 287 259 250 246
285 283 273 269 265 257 253 250 251 248 243 241 240 238 234 233 232 231 231 230 231 231 231 233 237 240 244 247 249 249 250 262 265 269 282 295 303 308 305 283 247 235 232
287 281 276 271 270 265 260 258 256 254 249 247 246 241 239 237 236 235 235 234 234 235 237 238 239 242 245 247 247 246 243 246 252 256 264 284 288 309 309 257 227 218 215
285 281 278 274 273 269 266 264 262 259 256 254 254 249 244 242 240 240 239 237 237 237 238 239 240 242 244 247 247 247 245 243 244 244 248 252 243 251 236 206 208 197 198
283 280 278 274 273 272 267 266 265 263 260 258 258 256 251 248 245 242 241 240 240 239 239 240 241 241 242 245 247 247 245 243 243 239 235 232 224 217 195 180 181 189 196
280 278 276 275 272 271 269 266 263 263 262 260 258 257 256 254 250 246 244 241 241 241 240 240 242 241 242 243 245 246 245 243 241 238 233 225 217 208 190 176 177 180 182
280 277 274 273 272 270 269 266 264 263 262 261 260 259 258 255 252 252 251 247 244 243 240 239 241 243 242 242 243 244 244 243 241 239 233 226 218 207 197 182 176 175 172
281 279 276 274 272 270 269 266 265 264 263 261 260 262 260 258 255 254 254 252 247 245 244 240 240 241 242 239 238 239 241 242 240 239 235 229 222 213 205 189 178 177 173
282 280 278 276 275 273 270 268 266 264 263 262 260 260 260 260 258 257 256 253 248 246 244 241 239 240 241 240 240 239 240 241 239 238 236 231 225 219 213 200 191 183 179
285 283 281 279 277 275 272 269 267 265 263 261 260 259 259 259 258 257 256 255 251 250 245 239 239 241 241 242 241 238 237 238 238 237 235 232 228 223 220 212 204 194 190
291 289 287 283 280 277 275 272 268 266 264 263 261 259 258 258 257 255 254 253 250 249 247 241 238 239 239 238 239 238 237 237 237 236 234 232 230 226 222 217 212 205 200
298 296 293 289 286 282 278 275 271 268 264 262 261 259 258 257 257 255 254 252 251 247 246 244 240 239 237 238 239 237 236 234 235 234 233 232 230 229 225 220 216 210 208
305 302 298 295 292 288 283 279 275 271 267 263 260 259 257 256 255 254 253 252 251 248 245 244 240 239 238 238 237 236 236 234 233 234 234 232 230 229 227 223 219 216 212
314 310 305 301 298 294 289 284 280 275 270 265 261 259 257 255 254 253 252 251 250 248 246 245 241 240 240 239 238 237 237 235 233 233 234 232 231 229 228 226 224 220 217
321 316 311 307 303 300 296 290 285 279 274 268 263 260 257 255 253 252 251 249 248 247 246 245 242 239 238 238 237 237 235 233 233 233 234 232 231 230 229 229 227 224 222
329 326 321 316 311 307 303 298 292 285 277 271 265 261 259 256 253 251 250 248 247 246 245 243 242 240 237 235 235 236 234 231 231 232 232 231 231 230 230 229 229 227 225
338 336 332 328 321 316 313 308 302 295 286 277 270 264 261 257 253 250 249 247 246 245 244 242 240 240 237 234 234 235 234 232 231 231 230 230 231 231 230 229 230 229 228
342 341 340 337 332 327 323 318 313 306 297 287 277 269 263 258 254 251 249 246 245 244 243 242 240 239 238 235 235 234 232 232 232 232 230 230 231 230 230 230 231 231 230
349 346 344 343 341 336 332 327 322 316 309 298 287 275 267 261 256 253 251 247 245 244 243 242 241 239 238 236 236 234 232 230 231 232 231 230 230 229 230 231 232 232 232
355 353 351 351 350 347 343 337 332 327 321 312 301 286 273 265 260 255 251 248 245 244 243 242 240 238 237 236 235 234 233 231 231 231 231 231 231 231 231 231 233 233 234
2 1 1 0 358 354 351 347 343 339 333 324 312 297 281 271 263 257 252 248 246 244 242 241 239 238 237 237 235 235 234 233 232 231 232 232 232 233 232 233 233 234 236
Height
5914 5913 5912 5912 5911 5911 5911 5911 5911 5911 5910 5910 5910 5910 5910 5909 5909 5909 5909 5909 5909 5908 5908 5908 5908 5908 5907 5907 5906 5906 5906 5906 5905 5905 5904 5903 5903 5902 5902 5901 5900 5900 5899
5914 5913 5912 5912 5911 5911 5911 5911 5910 5910 5910 5910 5909 5909 5909 5909 5908 5908 5908 5908 5907 5907 5907 5907 5906 5906 5905 5905 5905 5904 5904 5904 5904 5903 5902 5902 5901 5901 5900 5900 5899 5899 5898
5913 5912 5911 5911 5911 5910 5910 5910 5910 5910 5909 5909 5909 5908 5908 5908 5907 5907 5907 5906 5906 5906 5906 5905 5905 5905 5904 5904 5903 5903 5903 5902 5902 5902 5901 5900 5900 5899 5899 5899 5898 5898 5897
5911 5911 5910 5910 5909 5909 5908 5908 5908 5908 5908 5908 5907 5907 5906 5906 5906 5906 5905 5905 5905 5905 5904 5904 5904 5903 5903 5902 5902 5902 5901 5901 5901 5900 5900 5899 5899 5898 5898 5898 5897 5897 5897
5909 5909 5908 5907 5907 5907 5906 5906 5906 5906 5906 5905 5905 5905 5905 5904 5904 5904 5904 5904 5904 5903 5903 5903 5903 5902 5902 5901 5901 5901 5900 5900 5900 5899 5899 5898 5898 5897 5897 5897 5896 5896 5896
5907 5906 5905 5904 5904 5904 5903 5903 5903 5903 5903 5903 5903 5902 5902 5902 5902 5902 5902 5902 5902 5902 5902 5902 5901 5901 5901 5900 5900 5900 5899 5899 5899 5898 5898 5897 5897 5896 5896 5896 5895 5895 5895
5905 5904 5902 5901 5901 5900 5900 5900 5900 5899 5899 5899 5899 5899 5899 5899 5900 5900 5900 5900 5900 5900 5900 5900 5900 5900 5900 5899 5899 5899 5898 5898 5898 5897 5897 5896 5896 5896 5895 5895 5895 5895 5895
5902 5901 5899 5898 5898 5897 5896 5896 5895 5895 5895 5895 5895 5895 5896 5896 5896 5897 5897 5898 5898 5898 5898 5898 5898 5898 5898 5898 5898 5898 5897 5897 5897 5896 5896 5896 5895 5895 5895 5894 5894 5894 5894
5898 5897 5896 5895 5894 5893 5892 5891 5891 5891 5890 5890 5890 5890 5891 5892 5892 5893 5894 5895 5895 5895 5896 5896 5896 5896 5896 5897 5897 5896 5896 5896 5896 5895 5895 5895 5894 5894 5894 5894 5893 5893 5894
5894 5893 5891 5890 5889 5888 5887 5887 5886 5886 5886 5886 5885 5886 5886 5887 5888 5889 5890 5891 5891 5892 5892 5893 5893 5894 5894 5895 5895 5895 5895 5895 5895 5894 5894 5894 5894 5894 5893 5893 5893 5893 5893
5890 5888 5887 5885 5884 5883 5882 5882 5881 5881 5880 5880 5880 5881 5881 5881 5882 5884 5885 5886 5887 5888 5889 5890 5890 5891 5891 5892 5893 5893 5893 5893 5893 5893 5893 5893 5893 5893 5893 5893 5892 5892 5893
5884 5882 5881 5879 5878 5877 5876 5875 5875 5875 5875 5874 5875 5875 5876 5876 5877 5878 5880 5881 5882 5883 5884 5885 5886 5887 5888 5889 5890 5890 5891 5891 5891 5892 5892 5892 5892 5892 5892 5892 5892 5892 5892
5877 5875 5873 5872 5870 5870 5869 5868 5868 5868 5868 5868 5868 5869 5869 5870 5871 5872 5874 5875 5876 5878 5879 5880 5882 5883 5884 5885 5886 5887 5888 5889 5890 5890 5891 5891 5891 5891 5891 5891 5892 5892 5892
5870 5868 5866 5864 5863 5862 5861 5860 5860 5860 5860 5861 5861 5862 5863 5864 5865 5866 5868 5869 5870 5872 5873 5875 5877 5878 5880 5881 5882 5884 5885 5886 5887 5888 5889 5889 5890 5890 5890 5891 5891 5891 5892
5862 5860 5858 5856 5855 5853 5852 5852 5852 5851 5852 5852 5853 5854 5855 5857 5858 5859 5861 5862 5864 5865 5867 5869 5871 5873 5875 5876 5878 5879 5881 5883 5884 5885 5886 5887 5888 5889 5889 5890 5890 5890 5891
5855 5853 5851 5849 5847 5845 5844 5843 5843 5842 5843 5843 5844 5845 5847 5848 5850 5852 5853 5855 5857 5858 5860 5863 5865 5868 5869 5871 5873 5875 5877 5879 5880 5882 5883 5884 5886 5886 5887 5888 5889 5889 5890
5849 5846 5844 5841 5839 5838 5836 5835 5834 5833 5833 5834 5834 5835 5837 5839 5841 5843 5845 5847 5849 5851 5853 5856 5859 5861 5863 5865 5867 5870 5872 5874 5876 5878 5880 5881 5883 5884 5885 5886 5887 5888 5889
5843 5840 5837 5835 5833 5831 5829 5827 5826 5825 5825 5825 5825 5826 5827 5829 5831 5834 5837 5839 5841 5843 5846 5849 5851 5854 5857 5859 5862 5864 5866 5869 5872 5874 5876 5877 5879 5881 5882 5884 5885 5886 5887
5839 5835 5832 5829 5826 5824 5822 5820 5818 5817 5816 5816 5816 5817 5818 5819 5821 5824 5827 5830 5832 5835 5838 5841 5844 5847 5850 5853 5855 5858 5861 5864 5866 5869 5871 5873 5875 5877 5879 5881 5882 5884 5885
5835 5831 5827 5824 5821 5818 5815 5813 5811 5809 5808 5808 5807 5808 5809 5810 5812 5814 5817 5820 5823 5826 5830 5834 5837 5840 5843 5846 5849 5852 5855 5858 5860 5863 5866 5868 5871 5873 5875 5877 5879 5881 5882
5831 5827 5823 5819 5816 5812 5809 5806 5804 5802 5800 5799 5799 5799 5800 5801 5803 5805 5807 5810 5813 5817 5821 5825 5828 5832 5835 5839 5842 5845 5848 5851 5854 5857 5860 5863 5866 5868 5871 5873 5875 5877 5879
5829 5824 5820 5815 5811 5808 5804 5801 5798 5796 5794 5792 5791 5791 5791 5792 5793 5795 5798 5801 5804 5807 5811 5815 5819 5823 5826 5831 5835 5838 5841 5845 5848 5851 5854 5857 5860 5863 5865 5868 5870 5873 5875
5826 5822 5817 5812 5808 5804 5801 5797 5794 5791 5788 5786 5784 5784 5784 5784 5785 5787 5789 5792 5795 5798 5802 5806 5810 5814 5818 5822 5827 5830 5834 5838 5841 5844 5847 5851 5854 5857 5860 5863 5865 5868 5870
5825 5820 5815 5810 5806 5802 5798 5794 5790 5787 5783 5780 5778 5777 5777 5777 5778 5779 5781 5783 5786 5789 5792 5796 5800 5805 5809 5814 5818 5822 5827 5830 5833 5837 5841 5844 5847 5851 5854 5857 5860 5862 5865
5824 5818 5813 5808 5804 5800 5795 5791 5787 5783 5779 5775 5773 5771 5770 5770 5771 5772 5773 5775 5778 5781 5784 5788 5791 5796 5800 5805 5809 5813 5818 5822 5826 5830 5834 5837 5841 5844 5847 5851 5854 5857 5859
5823 5818 5812 5808 5803 5798 5794 5789 5784 5780 5776 5772 5769 5766 5765 5764 5764 5765 5766 5768 5770 5773 5776 5779 5783 5787 5791 5796 5801 5805 5809 5814 5818 5823 5826 5830 5834 5837 5840 5844 5847 5850 5853